Flag for Canada Weather past 2 weeks in Saguenay, Quebec, Canada

Now
58 °F

Cool.


Feels Like: 59 °F
Forecast: 58 / 70 °F
Wind: 3 mph from East

Location: Jonquiere Airport

Current Time: Jul 26, 2014 at 5:57:46 AM

Latest Report: Jul 26, 2014 at 5:00 AM


Visibility: N/A

Pressure: 29.76 "Hg

Humidity: 94%

Dew point: 57 °F

Location of SaguenayLocation

Historic Weather in Saguenay — Graph

°F

Saguenay temperature yesterday

Maximum temperature yesterday: 73 °F (at 1:00 PM)
Minimum temperature yesterday: 52 °F (at 6:00 AM)
Average temperature yesterday: 63 °F

Past Weeks' High & Low Weather Summary

 TemperatureHumidityPressure
High84 °F (Jul 22, 12:00 PM)100% (Jul 11, 5:00 AM)30.27 "Hg (Jul 11, 5:00 AM)
Low49 °F (Jul 11, 5:00 AM)34% (Jul 12, 4:00 PM)29.60 "Hg (Jul 13, 9:00 PM)
Average68 °F68%29.93 "Hg
* Reported Jul 11 4:00 AM — Jul 26 4:00 AM, Saguenay, Weather by CustomWeather, © 2014

Note: Actual official high and low records may vary slightly from our data, if they occured in-between our weather recording intervals... More about our weather records

Advertising

Saguenay weather history for previous 24 hours

 ConditionsComfort  
Time TempWeatherWind HumidityBarometerVisibility
4:00 AM
Jul 26
59 °FCool.3 mph92%29.76 "HgN/A
3:00 AM60 °FCool.2 mph84%29.77 "HgN/A
2:00 AM63 °FMild.9 mph74%29.78 "HgN/A
1:00 AM68 °FMild.13 mph67%29.76 "HgN/A
12:00 AM68 °FMild.15 mph66%29.74 "HgN/A
11:00 PM
Jul 25
65 °FMild.5 mph79%29.75 "HgN/A
10:00 PM63 °FMild.3 mph87%29.76 "HgN/A
9:00 PM64 °FMild.5 mph77%29.77 "HgN/A
8:00 PM66 °FMild.6 mph79%29.78 "HgN/A
7:00 PM66 °FMild.6 mph79%29.78 "HgN/A
6:00 PM66 °FMild.8 mph76%29.78 "HgN/A
5:00 PM68 °FMild.14 mph66%29.79 "HgN/A
4:00 PM72 °FMild.10 mph51%29.79 "HgN/A
3:00 PM72 °FMild.5 mph52%29.79 "HgN/A
2:00 PM71 °FMild.3 mph56%29.80 "HgN/A
1:00 PM73 °FMild.3 mph52%29.81 "HgN/A
12:00 PM71 °FMild.3 mph63%29.83 "HgN/A
11:00 AM69 °FMild.3 mph70%29.85 "HgN/A
10:00 AM65 °FMild.3 mph77%29.87 "HgN/A
9:00 AM62 °FCool.2 mph83%29.87 "HgN/A
8:00 AM57 °FCool.3 mph96%29.88 "HgN/A
7:00 AM56 °FCool.No wind98%29.87 "HgN/A
6:00 AM52 °FCool.3 mph98%29.86 "HgN/A
5:00 AM54 °FCool.2 mph95%29.86 "HgN/A
Weather by CustomWeather, © 2014

See weather overviewHow to use our weather pages